Simultaneous Nadir Overpasses (SNOs) Predictions

Prediction of SNOs between AQUA and GOES-15 Satellite Orbit:

Table of predicted SNOs for the next 14.0 days since TLE Epoch: 4/19/2014
Index Date Time (AQUA) AQUA Lat,Lon GOES-15 Lat,Lon Distance(km) Time Diff (sec)
1 04/19/2014 10:38:45 0.08,-135.65 0.01,-135.43 25.03 80
2 04/21/2014 10:26:32 -0.56,-132.68 0.01,-135.42 310.81 80
3 04/21/2014 22:47:55 -0.51,-137.88 -0.01,-135.40 281.16 80
4 04/23/2014 22:35:39 0.06,-134.90 -0.01,-135.38 54.55 80
5 04/25/2014 22:23:24 0.74,-131.94 -0.01,-135.36 390.07 80
6 04/26/2014 10:44:38 0.37,-137.08 0.01,-135.37 194.81 80
7 04/28/2014 10:32:21 -0.24,-134.11 0.01,-135.34 140.56 80
8 04/28/2014 22:53:44 -0.84,-139.30 -0.01,-135.32 451.74 80
9 04/30/2014 10:20:04 -0.90,-131.13 0.00,-135.31 475.72 80
10 04/30/2014 22:41:26 -0.23,-136.31 -0.00,-135.29 116.59 80
11 05/02/2014 22:29:08 0.43,-133.33 -0.00,-135.25 218.45 80




NCC Satellite Simultaneous Nadir Overpasses (SNOs) Prediction Service
